Time,TemperatureF,DewpointF,PressureIn,WindDirection,WindDirectionDegrees,WindSpeedMPH,WindSpeedGustMPH,Humidity,HourlyPrecipIn,Conditions,Clouds,dailyrainin,SoftwareType,DateUTC
2013-07-27 00:00:00,68.7,59.3,28.27,North,9,0.0,0.0,72,0.00,CLR,,0.00,WeatherDisplay:10.37,2013-07-27 04:00:00,
2013-07-27 00:10:00,68.7,59.7,28.27,NW,317,0.0,0.0,73,0.00,CLR,,0.00,WeatherDisplay:10.37,2013-07-27 04:10:00,
2013-07-27 00:20:00,68.7,60.8,28.24,West,270,0.0,0.0,76,0.00,CLR,,0.00,WeatherDisplay:10.37,2013-07-27 04:20:00,
2013-07-27 00:30:00,68.5,60.3,28.24,West,270,0.0,0.0,75,0.00,CLR,,0.00,WeatherDisplay:10.37,2013-07-27 04:30:00,
2013-07-27 00:40:00,68.5,59.9,28.24,West,270,0.0,0.0,74,0.00,CLR,,0.00,WeatherDisplay:10.37,2013-07-27 04:40:00,
2013-07-27 00:50:00,68.2,60.0,28.24,West,270,0.0,0.0,75,0.00,CLR,,0.00,WeatherDisplay:10.37,2013-07-27 04:50:00,
2013-07-27 01:00:00,68.0,60.2,28.24,West,270,0.0,0.0,76,0.00,CLR,,0.00,WeatherDisplay:10.37,2013-07-27 05:00:00,
2013-07-27 01:10:00,67.9,60.4,28.24,West,270,0.0,0.0,77,0.00,CLR,,0.00,WeatherDisplay:10.37,2013-07-27 05:10:00,
2013-07-27 01:20:00,68.0,60.9,28.24,West,270,0.0,0.0,78,0.00,CLR,,0.00,WeatherDisplay:10.37,2013-07-27 05:20:00,
2013-07-27 01:30:00,68.0,61.2,28.24,West,270,0.0,0.0,79,0.00,CLR,,0.00,WeatherDisplay:10.37,2013-07-27 05:30:00,
2013-07-27 01:40:00,68.0,61.6,28.24,WNW,286,0.0,0.0,80,0.00,CLR,,0.00,WeatherDisplay:10.37,2013-07-27 05:40:00,
2013-07-27 01:50:00,68.0,62.3,28.24,NNW,338,0.0,0.0,82,0.00,CLR,,0.00,WeatherDisplay:10.37,2013-07-27 05:50:00,
2013-07-27 02:00:00,67.8,62.8,28.24,North,6,0.0,0.0,84,0.00,CLR,,0.00,WeatherDisplay:10.37,2013-07-27 06:00:00,
2013-07-27 02:10:00,67.7,63.0,28.24,North,353,0.0,0.0,85,0.00,CLR,,0.00,WeatherDisplay:10.37,2013-07-27 06:10:00,
2013-07-27 02:20:00,67.6,63.0,28.24,NNW,338,0.0,0.0,85,0.00,CLR,,0.00,WeatherDisplay:10.37,2013-07-27 06:20:00,
2013-07-27 02:30:00,67.5,63.1,28.24,North,7,0.0,0.0,86,0.00,CLR,,0.00,WeatherDisplay:10.37,2013-07-27 06:30:00,
2013-07-27 02:40:00,67.3,63.3,28.24,NNE,22,0.0,0.0,87,0.00,CLR,,0.00,WeatherDisplay:10.37,2013-07-27 06:40:00,
2013-07-27 02:50:00,67.3,63.3,28.21,NNE,22,0.0,0.0,87,0.00,CLR,,0.00,WeatherDisplay:10.37,2013-07-27 06:50:00,
2013-07-27 03:00:00,67.3,63.6,28.21,North,10,0.0,0.0,88,0.00,CLR,,0.00,WeatherDisplay:10.37,2013-07-27 07:00:00,
2013-07-27 03:10:00,67.1,63.4,28.21,North,355,0.0,0.0,88,0.00,CLR,,0.00,WeatherDisplay:10.37,2013-07-27 07:10:00,
2013-07-27 03:20:00,67.3,64.2,28.21,North,11,0.0,0.0,90,0.00,CLR,,0.00,WeatherDisplay:10.37,2013-07-27 07:20:00,
2013-07-27 03:30:00,67.3,64.6,28.21,NNE,18,1.0,2.0,91,0.00,CLR,,0.00,WeatherDisplay:10.37,2013-07-27 07:30:00,
2013-07-27 03:40:00,67.3,64.6,28.21,North,0,0.0,2.0,91,0.00,CLR,,0.00,WeatherDisplay:10.37,2013-07-27 07:40:00,
2013-07-27 03:50:00,67.3,64.6,28.21,North,11,1.0,2.0,91,0.00,CLR,,0.00,WeatherDisplay:10.37,2013-07-27 07:50:00,
2013-07-27 04:00:00,67.3,64.6,28.21,NNE,17,0.0,1.0,91,0.00,CLR,,0.00,WeatherDisplay:10.37,2013-07-27 08:00:00,
2013-07-27 04:10:00,67.3,64.2,28.21,North,0,0.0,0.0,90,0.00,CLR,,0.00,WeatherDisplay:10.37,2013-07-27 08:10:00,
2013-07-27 04:20:00,67.3,64.2,28.21,North,0,0.0,0.0,90,0.00,CLR,,0.00,WeatherDisplay:10.37,2013-07-27 08:20:00,
2013-07-27 04:30:00,67.3,64.6,28.21,NNE,18,0.0,0.0,91,0.00,CLR,,0.00,WeatherDisplay:10.37,2013-07-27 08:30:00,
2013-07-27 04:40:00,67.3,64.6,28.21,NNE,17,0.0,1.0,91,0.00,CLR,,0.00,WeatherDisplay:10.37,2013-07-27 08:40:00,
2013-07-27 04:50:00,67.3,64.6,28.21,North,10,0.0,2.0,91,0.00,CLR,,0.00,WeatherDisplay:10.37,2013-07-27 08:50:00,
2013-07-27 05:00:00,67.3,64.6,28.21,NNE,12,1.0,2.0,91,0.00,CLR,,0.00,WeatherDisplay:10.37,2013-07-27 09:00:00,
2013-07-27 05:10:00,67.3,64.6,28.18,NNE,22,0.0,1.0,91,0.00,CLR,,0.00,WeatherDisplay:10.37,2013-07-27 09:10:00,
2013-07-27 05:20:00,67.3,64.9,28.18,NNE,23,0.0,3.0,92,0.00,CLR,,0.00,WeatherDisplay:10.37,2013-07-27 09:20:00,
2013-07-27 05:30:00,67.3,64.6,28.18,North,3,0.0,1.0,91,0.00,CLR,,0.00,WeatherDisplay:10.37,2013-07-27 09:30:00,
2013-07-27 05:40:00,67.3,64.6,28.18,NNE,22,0.0,2.0,91,0.00,CLR,,0.00,WeatherDisplay:10.37,2013-07-27 09:40:00,
2013-07-27 05:50:00,67.3,64.6,28.18,North,4,0.0,1.0,91,0.00,CLR,,0.00,WeatherDisplay:10.37,2013-07-27 09:50:00,
2013-07-27 06:00:00,67.3,64.6,28.18,NNE,23,1.0,1.0,91,0.00,CLR,,0.00,WeatherDisplay:10.37,2013-07-27 10:00:00,
2013-07-27 06:10:00,67.3,64.6,28.18,NNE,22,0.0,1.0,91,0.00,CLR,,0.00,WeatherDisplay:10.37,2013-07-27 10:10:00,
2013-07-27 06:20:00,67.3,64.6,28.21,NNE,21,0.0,0.0,91,0.00,CLR,,0.00,WeatherDisplay:10.37,2013-07-27 10:20:00,
2013-07-27 06:30:00,67.3,64.6,28.21,North,0,0.0,0.0,91,0.00,CLR,,0.00,WeatherDisplay:10.37,2013-07-27 10:30:00,
2013-07-27 06:40:00,67.3,64.6,28.21,NNE,23,0.0,2.0,91,0.00,CLR,,0.00,WeatherDisplay:10.37,2013-07-27 10:40:00,
2013-07-27 06:50:00,67.5,64.7,28.21,NNE,14,0.0,2.0,91,0.00,CLR,,0.00,WeatherDisplay:10.37,2013-07-27 10:50:00,
2013-07-27 07:00:00,67.5,64.4,28.21,North,0,0.0,0.0,90,0.00,CLR,,0.00,WeatherDisplay:10.37,2013-07-27 11:00:00,
2013-07-27 07:10:00,67.5,64.4,28.21,North,0,0.0,0.0,90,0.00,CLR,,0.00,WeatherDisplay:10.37,2013-07-27 11:10:00,
2013-07-27 07:20:00,67.5,64.4,28.21,North,0,0.0,0.0,90,0.00,CLR,,0.00,WeatherDisplay:10.37,2013-07-27 11:20:00,
2013-07-27 07:30:00,67.6,64.6,28.21,North,0,0.0,0.0,90,0.00,CLR,,0.00,WeatherDisplay:10.37,2013-07-27 11:30:00,
2013-07-27 07:40:00,67.6,64.6,28.18,NNE,20,0.0,0.0,90,0.00,CLR,,0.00,WeatherDisplay:10.37,2013-07-27 11:40:00,
2013-07-27 07:50:00,67.8,64.8,28.21,NNE,22,0.0,0.0,90,0.00,CLR,,0.00,WeatherDisplay:10.37,2013-07-27 11:50:00,
2013-07-27 08:00:00,67.8,64.8,28.21,NNE,24,0.0,0.0,90,0.00,CLR,,0.00,WeatherDisplay:10.37,2013-07-27 12:00:00,
2013-07-27 08:10:00,68.0,64.6,28.21,NNE,22,0.0,1.0,89,0.00,CLR,,0.00,WeatherDisplay:10.37,2013-07-27 12:10:00,
2013-07-27 08:20:00,68.2,64.8,28.21,North,6,0.0,2.0,89,0.00,CLR,,0.00,WeatherDisplay:10.37,2013-07-27 12:20:00,
2013-07-27 08:30:00,68.4,65.0,28.21,NNW,338,0.0,0.0,89,0.00,CLR,,0.00,WeatherDisplay:10.37,2013-07-27 12:30:00,
2013-07-27 08:40:00,68.5,65.2,28.18,North,1,0.0,2.0,89,0.00,CLR,,0.00,WeatherDisplay:10.37,2013-07-27 12:40:00,
2013-07-27 08:50:00,68.7,65.3,28.18,North,355,0.0,0.0,89,0.00,CLR,,0.00,WeatherDisplay:10.37,2013-07-27 12:50:00,
2013-07-27 09:00:00,68.7,65.0,28.18,NNW,338,0.0,0.0,88,0.00,CLR,,0.00,WeatherDisplay:10.37,2013-07-27 13:00:00,
2013-07-27 09:10:00,68.9,65.2,28.21,NNW,338,0.0,0.0,88,0.00,CLR,,0.00,WeatherDisplay:10.37,2013-07-27 13:10:00,
2013-07-27 09:20:00,68.7,64.7,28.21,NNW,338,0.0,0.0,87,0.00,CLR,,0.00,WeatherDisplay:10.37,2013-07-27 13:20:00,
2013-07-27 09:30:00,68.9,64.9,28.21,NNW,338,0.0,0.0,87,0.00,CLR,,0.00,WeatherDisplay:10.37,2013-07-27 13:30:00,
2013-07-27 09:40:00,69.1,65.4,28.21,NNW,338,0.0,0.0,88,0.00,CLR,,0.00,WeatherDisplay:10.37,2013-07-27 13:40:00,
2013-07-27 09:50:00,69.4,65.7,28.21,NNW,338,0.0,0.0,88,0.00,CLR,,0.00,WeatherDisplay:10.37,2013-07-27 13:50:00,
2013-07-27 10:00:00,69.4,65.7,28.21,NNE,31,0.0,1.0,88,0.00,CLR,,0.00,WeatherDisplay:10.37,2013-07-27 14:00:00,
2013-07-27 10:10:00,69.6,66.2,28.21,SSW,202,0.0,2.0,89,0.00,CLR,,0.00,WeatherDisplay:10.37,2013-07-27 14:10:00,
2013-07-27 10:20:00,69.4,65.7,28.18,SSW,204,0.0,2.0,88,0.00,CLR,,0.00,WeatherDisplay:10.37,2013-07-27 14:20:00,
2013-07-27 10:30:00,69.4,65.7,28.18,SSW,203,1.0,3.0,88,0.00,CLR,,0.00,WeatherDisplay:10.37,2013-07-27 14:30:00,
2013-07-27 10:40:00,69.3,65.6,28.18,SSW,202,1.0,4.0,88,0.00,CLR,,0.00,WeatherDisplay:10.37,2013-07-27 14:40:00,
2013-07-27 10:50:00,69.8,66.1,28.18,SSW,192,2.0,4.0,88,0.00,CLR,,0.00,WeatherDisplay:10.37,2013-07-27 14:50:00,
2013-07-27 11:00:00,70.5,66.7,28.18,SW,215,3.0,5.0,88,0.00,CLR,,0.00,WeatherDisplay:10.37,2013-07-27 15:00:00,
2013-07-27 11:10:00,71.6,67.8,28.18,SW,220,1.0,3.0,88,0.00,CLR,,0.00,WeatherDisplay:10.37,2013-07-27 15:10:00,
2013-07-27 11:20:00,72.9,68.1,28.18,SW,232,0.0,3.0,85,0.00,CLR,,0.00,WeatherDisplay:10.37,2013-07-27 15:20:00,
2013-07-27 11:30:00,72.5,65.2,28.18,SSE,168,1.0,2.0,78,0.00,CLR,,0.00,WeatherDisplay:10.37,2013-07-27 15:30:00,
2013-07-27 11:40:00,73.3,66.1,28.18,SSW,207,2.0,2.0,78,0.00,CLR,,0.00,WeatherDisplay:10.37,2013-07-27 15:40:00,
2013-07-27 11:50:00,75.6,65.1,28.18,West,260,1.0,4.0,70,0.00,CLR,,0.00,WeatherDisplay:10.37,2013-07-27 15:50:00,
2013-07-27 12:00:00,75.8,62.8,28.18,SW,216,0.0,5.0,64,0.00,CLR,,0.00,WeatherDisplay:10.37,2013-07-27 16:00:00,
2013-07-27 12:10:00,75.6,60.7,28.18,SSW,206,1.0,4.0,60,0.00,CLR,,0.00,WeatherDisplay:10.37,2013-07-27 16:10:00,
2013-07-27 12:20:00,74.7,60.8,28.18,SW,228,1.0,5.0,62,0.00,CLR,,0.00,WeatherDisplay:10.37,2013-07-27 16:20:00,
2013-07-27 12:30:00,74.3,61.3,28.18,South,191,1.0,3.0,64,0.00,CLR,,0.00,WeatherDisplay:10.37,2013-07-27 16:30:00,
2013-07-27 12:40:00,73.9,62.3,28.18,South,191,0.0,1.0,67,0.00,CLR,,0.00,WeatherDisplay:10.37,2013-07-27 16:40:00,
2013-07-27 12:50:00,73.7,63.7,28.18,South,191,1.0,2.0,71,0.00,CLR,,0.00,WeatherDisplay:10.37,2013-07-27 16:50:00,
2013-07-27 13:00:00,73.9,64.3,28.18,SSW,204,1.0,3.0,72,0.00,CLR,,0.00,WeatherDisplay:10.37,2013-07-27 17:00:00,
2013-07-27 13:10:00,74.1,62.5,28.18,SSW,205,1.0,3.0,67,0.00,CLR,,0.00,WeatherDisplay:10.37,2013-07-27 17:10:00,
2013-07-27 13:20:00,75.3,64.8,28.21,SSW,199,0.0,3.0,70,0.00,CLR,,0.00,WeatherDisplay:10.37,2013-07-27 17:20:00,
2013-07-27 13:30:00,76.5,65.1,28.21,SSW,199,3.0,5.0,68,0.00,CLR,,0.00,WeatherDisplay:10.37,2013-07-27 17:30:00,
2013-07-27 13:40:00,77.8,63.7,28.18,South,188,2.0,5.0,62,0.00,CLR,,0.00,WeatherDisplay:10.37,2013-07-27 17:40:00,
2013-07-27 13:50:00,77.5,59.1,28.18,SSW,204,1.0,6.0,53,0.00,CLR,,0.00,WeatherDisplay:10.37,2013-07-27 17:50:00,
2013-07-27 14:00:00,76.7,58.3,28.18,NE,38,0.0,2.0,53,0.00,CLR,,0.00,WeatherDisplay:10.37,2013-07-27 18:00:00,
2013-07-27 14:10:00,77.2,60.8,28.15,South,177,1.0,5.0,57,0.00,CLR,,0.00,WeatherDisplay:10.37,2013-07-27 18:10:00,
2013-07-27 14:20:00,77.2,59.3,28.15,SSW,208,2.0,5.0,54,0.00,CLR,,0.00,WeatherDisplay:10.37,2013-07-27 18:20:00,
2013-07-27 14:30:00,76.8,57.9,28.15,SSW,204,3.0,5.0,52,0.00,CLR,,0.00,WeatherDisplay:10.37,2013-07-27 18:30:00,
2013-07-27 14:40:00,76.5,58.1,28.15,SSW,194,2.0,6.0,53,0.00,CLR,,0.00,WeatherDisplay:10.37,2013-07-27 18:40:00,
2013-07-27 14:50:00,77.0,57.5,28.15,South,191,2.0,6.0,51,0.00,CLR,,0.00,WeatherDisplay:10.37,2013-07-27 18:50:00,
2013-07-27 15:00:00,76.9,60.0,28.15,SW,223,0.0,3.0,56,0.00,CLR,,0.00,WeatherDisplay:10.37,2013-07-27 19:00:00,
2013-07-27 15:10:00,76.9,60.0,28.15,South,187,3.0,6.0,56,0.00,CLR,,0.00,WeatherDisplay:10.37,2013-07-27 19:10:00,
2013-07-27 15:20:00,76.4,61.5,28.15,SSW,209,1.0,6.0,60,0.00,CLR,,0.00,WeatherDisplay:10.37,2013-07-27 19:20:00,
2013-07-27 15:30:00,78.3,57.0,28.15,SSW,201,2.0,6.0,48,0.00,CLR,,0.00,WeatherDisplay:10.37,2013-07-27 19:30:00,
2013-07-27 15:40:00,78.3,58.6,28.15,SSW,194,2.0,5.0,51,0.00,CLR,,0.00,WeatherDisplay:10.37,2013-07-27 19:40:00,
2013-07-27 15:50:00,78.6,60.6,28.15,SSW,205,5.0,6.0,54,0.00,CLR,,0.00,WeatherDisplay:10.37,2013-07-27 19:50:00,
2013-07-27 16:00:00,80.1,56.2,28.15,SSW,196,2.0,8.0,44,0.00,CLR,,0.00,WeatherDisplay:10.37,2013-07-27 20:00:00,
2013-07-27 16:10:00,78.3,55.2,28.15,SSW,207,3.0,6.0,45,0.00,CLR,,0.00,WeatherDisplay:10.37,2013-07-27 20:10:00,
2013-07-27 16:20:00,77.9,57.2,28.15,SSW,206,2.0,6.0,49,0.00,CLR,,0.00,WeatherDisplay:10.37,2013-07-27 20:20:00,
2013-07-27 16:30:00,77.5,55.1,28.15,SW,230,2.0,6.0,46,0.00,CLR,,0.00,WeatherDisplay:10.37,2013-07-27 20:30:00,
2013-07-27 16:40:00,77.3,55.5,28.15,SSW,213,2.0,6.0,47,0.00,CLR,,0.00,WeatherDisplay:10.37,2013-07-27 20:40:00,
2013-07-27 16:50:00,76.8,55.1,28.15,SSW,211,2.0,7.0,47,0.00,CLR,,0.00,WeatherDisplay:10.37,2013-07-27 20:50:00,
2013-07-27 17:00:00,76.3,55.1,28.15,SSW,211,3.0,4.0,48,0.00,CLR,,0.00,WeatherDisplay:10.37,2013-07-27 21:00:00,
2013-07-27 17:10:00,75.5,52.6,28.12,WSW,243,2.0,5.0,45,0.00,CLR,,0.00,WeatherDisplay:10.37,2013-07-27 21:10:00,
2013-07-27 17:20:00,73.1,52.2,28.15,WNW,298,1.0,4.0,48,0.00,CLR,,0.00,WeatherDisplay:10.37,2013-07-27 21:20:00,
2013-07-27 17:30:00,72.3,55.7,28.15,WNW,291,1.0,2.0,56,0.00,CLR,,0.00,WeatherDisplay:10.37,2013-07-27 21:30:00,
2013-07-27 17:40:00,70.0,55.5,28.12,West,261,1.0,2.0,60,0.00,CLR,,0.00,WeatherDisplay:10.37,2013-07-27 21:40:00,
2013-07-27 17:50:00,69.4,58.8,28.15,NW,314,1.0,2.0,69,0.00,CLR,,0.00,WeatherDisplay:10.37,2013-07-27 21:50:00,
2013-07-27 18:00:00,69.1,59.7,28.15,NNE,18,0.0,2.0,72,0.00,CLR,,0.00,WeatherDisplay:10.37,2013-07-27 22:00:00,
2013-07-27 18:10:00,69.2,61.3,28.15,NW,314,0.0,0.0,76,0.00,CLR,,0.00,WeatherDisplay:10.37,2013-07-27 22:10:00,
2013-07-27 18:20:00,69.3,61.7,28.12,NW,311,0.0,0.0,77,0.00,CLR,,0.00,WeatherDisplay:10.37,2013-07-27 22:20:00,
2013-07-27 18:30:00,69.8,63.7,28.12,NE,34,0.0,2.0,81,0.00,CLR,,0.00,WeatherDisplay:10.37,2013-07-27 22:30:00,
2013-07-27 18:40:00,70.0,64.2,28.15,NNW,338,0.0,0.0,82,0.00,CLR,,0.00,WeatherDisplay:10.37,2013-07-27 22:40:00,
2013-07-27 18:50:00,70.0,64.2,28.15,North,354,0.0,0.0,82,0.00,CLR,,0.00,WeatherDisplay:10.37,2013-07-27 22:50:00,
2013-07-27 19:00:00,70.3,65.3,28.15,NW,320,0.0,0.0,84,0.00,CLR,,0.00,WeatherDisplay:10.37,2013-07-27 23:00:00,
2013-07-27 19:10:00,70.5,65.8,28.12,SSE,158,0.0,0.0,85,0.00,CLR,,0.00,WeatherDisplay:10.37,2013-07-27 23:10:00,
2013-07-27 19:20:00,70.5,65.8,28.15,ESE,115,0.0,0.0,85,0.00,CLR,,0.00,WeatherDisplay:10.37,2013-07-27 23:20:00,
2013-07-27 19:30:00,70.2,65.4,28.15,ENE,64,0.0,0.0,85,0.00,CLR,,0.00,WeatherDisplay:10.37,2013-07-27 23:30:00,
2013-07-27 19:40:00,69.8,64.7,28.15,NNE,13,0.0,0.0,84,0.00,CLR,,0.00,WeatherDisplay:10.37,2013-07-27 23:40:00,
2013-07-27 19:50:00,69.6,64.9,28.15,NNW,337,0.0,0.0,85,0.00,CLR,,0.00,WeatherDisplay:10.37,2013-07-27 23:50:00,
2013-07-27 20:00:00,69.8,65.4,28.15,NNW,334,0.0,0.0,86,0.00,CLR,,0.00,WeatherDisplay:10.37,2013-07-28 00:00:00,
2013-07-27 20:10:00,69.6,65.6,28.15,WNW,292,0.0,0.0,87,0.00,CLR,,0.00,WeatherDisplay:10.37,2013-07-28 00:10:00,
2013-07-27 20:20:00,69.4,65.1,28.15,NNW,346,0.0,0.0,86,0.00,CLR,,0.00,WeatherDisplay:10.37,2013-07-28 00:20:00,
2013-07-27 20:30:00,68.9,64.2,28.15,North,0,0.0,0.0,85,0.00,CLR,,0.00,WeatherDisplay:10.37,2013-07-28 00:30:00,
2013-07-27 20:40:00,68.5,63.8,28.15,North,0,0.0,0.0,85,0.00,CLR,,0.00,WeatherDisplay:10.37,2013-07-28 00:40:00,
2013-07-27 20:50:00,68.2,63.8,28.15,North,0,0.0,0.0,86,0.00,CLR,,0.00,WeatherDisplay:10.37,2013-07-28 00:50:00,
2013-07-27 21:00:00,68.0,64.0,28.15,NW,321,0.0,0.0,87,0.00,CLR,,0.00,WeatherDisplay:10.37,2013-07-28 01:00:00,
2013-07-27 21:10:00,67.8,63.8,28.15,NNW,327,0.0,0.0,87,0.00,CLR,,0.00,WeatherDisplay:10.37,2013-07-28 01:10:00,
2013-07-27 21:20:00,67.5,63.5,28.15,NNW,338,0.0,0.0,87,0.00,CLR,,0.00,WeatherDisplay:10.37,2013-07-28 01:20:00,
2013-07-27 21:30:00,67.3,63.6,28.15,NW,319,0.0,0.0,88,0.00,CLR,,0.00,WeatherDisplay:10.37,2013-07-28 01:30:00,
2013-07-27 21:40:00,67.1,63.4,28.15,North,5,0.0,0.0,88,0.00,CLR,,0.00,WeatherDisplay:10.37,2013-07-28 01:40:00,
2013-07-27 21:50:00,67.0,63.7,28.15,NNE,21,0.0,0.0,89,0.00,CLR,,0.00,WeatherDisplay:10.37,2013-07-28 01:50:00,
2013-07-27 22:00:00,66.7,63.4,28.15,NW,322,0.0,0.0,89,0.00,CLR,,0.00,WeatherDisplay:10.37,2013-07-28 02:00:00,
2013-07-27 22:10:00,66.6,63.2,28.15,North,1,0.0,0.0,89,0.00,CLR,,0.00,WeatherDisplay:10.37,2013-07-28 02:10:00,
2013-07-27 22:20:00,66.6,63.5,28.15,NNE,18,0.0,0.0,90,0.00,CLR,,0.00,WeatherDisplay:10.37,2013-07-28 02:20:00,
2013-07-27 22:30:00,66.6,63.9,28.15,North,5,0.0,0.0,91,0.00,CLR,,0.00,WeatherDisplay:10.37,2013-07-28 02:30:00,
2013-07-27 22:40:00,66.7,64.0,28.15,NNE,16,0.0,0.0,91,0.00,CLR,,0.00,WeatherDisplay:10.37,2013-07-28 02:40:00,
2013-07-27 22:50:00,66.6,63.9,28.15,NNE,23,0.0,0.0,91,0.00,CLR,,0.00,WeatherDisplay:10.37,2013-07-28 02:50:00,
2013-07-27 23:00:00,66.6,64.2,28.15,NNE,22,0.0,0.0,92,0.00,CLR,,0.00,WeatherDisplay:10.37,2013-07-28 03:00:00,
2013-07-27 23:10:00,66.6,64.2,28.18,NNE,22,0.0,0.0,92,0.00,CLR,,0.00,WeatherDisplay:10.37,2013-07-28 03:10:00,
2013-07-27 23:20:00,66.7,64.3,28.15,NNE,23,0.0,0.0,92,0.00,CLR,,0.00,WeatherDisplay:10.37,2013-07-28 03:20:00,
2013-07-27 23:30:00,66.7,64.7,28.15,NNE,22,0.0,0.0,93,0.00,CLR,,0.00,WeatherDisplay:10.37,2013-07-28 03:30:00,
2013-07-27 23:40:00,66.7,64.7,28.15,North,358,0.0,0.0,93,0.00,CLR,,0.00,WeatherDisplay:10.37,2013-07-28 03:40:00,
2013-07-27 23:50:00,66.7,65.0,28.15,NNE,32,0.0,1.0,94,0.00,CLR,,0.00,WeatherDisplay:10.37,2013-07-28 03:50:00,